Simultaneous Nadir Overpasses (SNOs) Predictions

Prediction of SNOs between LANDSAT-8 and NPP Satellite Orbit:

Table of predicted SNOs for the next 14.0 days since TLE Epoch: 12/27/2013
Index Date (LANDSAT-8) Time (LANDSAT-8) Lat,Lon (LANDSAT-8) SZA (LANDSAT-8 ) Date (NPP) Time (NPP) Lat,Lon (NPP) SZA (NPP ) Distance(km) Time Diff (sec)
1 12/29/2013 06:10:21 70.17, 84.23 93.32 12/29/2013 06:09:28 70.16, 84.26 93.31 1.94 53
2 12/29/2013 06:59:51 -70.07,-108.29 86.79 12/29/2013 07:00:10 -70.09,-108.31 86.77 2.13 19
3 12/29/2013 07:49:33 69.13, 58.08 92.29 12/29/2013 07:50:39 69.15, 60.37 92.27 90.72 66
4 12/31/2013 22:26:49 70.16,-159.92 93.12 12/31/2013 22:26:27 70.18,-160.00 93.14 3.55 22
5 12/31/2013 23:16:19 -70.05, 7.57 86.99 12/31/2013 23:17:08 -70.05, 7.52 86.99 1.98 49
6 01/03/2014 13:53:49 -70.24, 148.43 87.04 01/03/2014 13:52:39 -70.22, 148.39 87.04 2.36 70
7 01/03/2014 14:43:16 70.12, -44.09 92.85 01/03/2014 14:43:23 70.09, -44.09 92.82 3.64 7
8 01/03/2014 15:32:50 -69.80, 123.10 87.46 01/03/2014 15:34:01 -69.80, 123.66 87.48 21.76 71
9 01/06/2014 06:10:17 -70.19, -95.76 87.37 01/06/2014 06:09:37 -70.19, -95.79 87.36 1.05 40
10 01/06/2014 06:59:44 70.07, 71.72 92.52 01/06/2014 07:00:21 70.06, 71.72 92.50 1.17 37
11 01/08/2014 21:37:10 70.49,-147.06 92.60 01/08/2014 21:35:59 70.56,-147.92 92.69 32.56 71
12 01/08/2014 22:26:44 -70.17, 20.11 87.72 01/08/2014 22:26:35 -70.16, 20.03 87.73 3.26 9
13 01/08/2014 23:16:11 70.05,-172.42
